Home > Weather > Topeka > Past weeks

Flag for USA Weather for the Past 2 Weeks in Topeka, Kansas, USA

Now
58 °F

Overcast.


Feels Like: 57 °F
Forecast: 47 / 62 °F
Wind: 7 mph from North

Location: Philip Billard Municipal Airport

Current Time: May 2, 2016 at 4:32:57 PM

Latest Report: May 2, 2016 at 3:53 PM


Visibility: 10 mi

Pressure: 30.09 "Hg

Humidity: 60%

Dew Point: 44 °F

Location of TopekaLocation

Historic Weather in Topeka — Graph

°F

Topeka Temperature Yesterday

Maximum temperature yesterday: 59 °F (at 11:53 AM)
Minimum temperature yesterday: 45 °F (at 4:53 AM)
Average temperature yesterday: 52 °F

High & Low Weather Summary for the Past Weeks

 TemperatureHumidityPressure
High80 °F (Apr 23, 3:53 PM)97% (Apr 26, 4:53 AM)30.21 "Hg (Apr 26, 4:53 AM)
Low45 °F (May 1, 4:53 AM)36% (Apr 23, 2:53 PM)29.41 "Hg (Apr 27, 3:53 AM)
Average60 °F75%29.90 "Hg
* Reported Apr 17 2:53 PM — May 2 2:53 PM, Topeka, Weather by CustomWeather, © 2016

Note: Actual official high and low records may vary slightly from our data, if they occured in-between our weather recording intervals... More about our weather records

Advertising

Topeka Weather History for the Previous 24 Hours

Scroll right to see more
 ConditionsComfort  
Time TempWeatherWind HumidityBarometerVisibility
2:53 PM
Mon, May 2
58 °FOvercast.8 mph62%30.10 "Hg10 mi
1:53 PM55 °FOvercast.8 mph67%30.11 "Hg10 mi
12:53 PM58 °FOvercast.9 mph58%30.11 "Hg10 mi
11:53 AM56 °FCloudy.9 mph62%30.12 "Hg10 mi
10:53 AM56 °FCloudy.8 mph65%30.12 "Hg10 mi
9:53 AM54 °FMore clouds than sun.9 mph72%30.13 "Hg10 mi
8:53 AM52 °FOvercast.6 mph75%30.14 "Hg10 mi
7:53 AM50 °FOvercast.6 mph80%30.13 "Hg10 mi
6:53 AM48 °FOvercast.7 mph86%30.12 "Hg10 mi
5:53 AM48 °FOvercast.7 mph83%30.12 "Hg10 mi
4:53 AM48 °FMostly cloudy.9 mph83%30.12 "Hg10 mi
3:53 AM48 °FOvercast.7 mph83%30.13 "Hg10 mi
2:53 AM49 °FOvercast.5 mph80%30.15 "Hg10 mi
1:53 AM49 °FOvercast.5 mph80%30.16 "Hg10 mi
12:53 AM49 °FOvercast.6 mph80%30.16 "Hg10 mi
11:53 PM
Sun, May 1
49 °FOvercast.6 mph80%30.16 "Hg10 mi
10:53 PM49 °FOvercast.6 mph80%30.16 "Hg10 mi
9:53 PM50 °FOvercast.12 mph74%30.14 "Hg10 mi
9:02 PM50 °FOvercast.9 mph77%30.12 "Hg10 mi
7:53 PM51 °FOvercast.8 mph77%30.11 "Hg10 mi
6:53 PM51 °FOvercast.12 mph77%30.10 "Hg10 mi
5:53 PM53 °FOvercast.10 mph74%30.10 "Hg10 mi
4:53 PM55 °FMostly cloudy.9 mph72%30.08 "Hg10 mi
Weather by CustomWeather, © 2016

See weather overviewHow to use our weather pages